Data supplied by UK-AIR on 24/3/2020
All Data GMT hour ending  NB:  Upto 07/08/2019 PM10 were measured with a BAM unheated, from 07/08/2019 PM10 were measured with a BAM 1020 heated
Status: R =Ratified P=Provisional,P*=As supplied
,,Belfast Stockman's Lane,,,,,,,,,,,,,,,,,,,,,,,
Date,time,"PM<sub>10</sub> particulate matter (Hourly measured)",status,unit,"Nitric oxide",status,unit,"Nitrogen dioxide",status,unit,"Nitrogen oxides as nitrogen dioxide",status,unit
 
01-01-2019,01:00,6.666,R,ugm-3 (Ref.eq),4.56390,R,ugm-3,6.38218,R,ugm-3,13.38006,R,ugm-3
01-01-2019,02:00,7.500,R,ugm-3 (Ref.eq),3.73547,R,ugm-3,13.06631,R,ugm-3,18.79395,R,ugm-3
01-01-2019,03:00,9.166,R,ugm-3 (Ref.eq),5.61827,R,ugm-3,11.57154,R,ugm-3,20.18610,R,ugm-3
01-01-2019,04:00,9.166,R,ugm-3 (Ref.eq),5.50530,R,ugm-3,11.28071,R,ugm-3,19.72205,R,ugm-3
01-01-2019,05:00,7.500,R,ugm-3 (Ref.eq),6.37138,R,ugm-3,11.80892,R,ugm-3,21.57824,R,ugm-3
01-01-2019,06:00,5.833,R,ugm-3 (Ref.eq),4.45093,R,ugm-3,6.40071,R,ugm-3,13.22537,R,ugm-3
01-01-2019,07:00,4.167,R,ugm-3 (Ref.eq),5.84420,R,ugm-3,8.49883,R,ugm-3,17.45981,R,ugm-3
01-01-2019,08:00,6.666,R,ugm-3 (Ref.eq),10.58885,R,ugm-3,21.69993,R,ugm-3,37.93594,R,ugm-3
01-01-2019,09:00,6.666,R,ugm-3 (Ref.eq),25.12404,R,ugm-3,44.48363,R,ugm-3,83.00662,R,ugm-3
01-01-2019,10:00,5.833,R,ugm-3 (Ref.eq),45.60887,R,ugm-3,59.47882,R,ugm-3,129.41144,R,ugm-3
01-01-2019,11:00,8.333,R,ugm-3 (Ref.eq),38.19065,R,ugm-3,47.99889,R,ugm-3,106.55707,R,ugm-3
01-01-2019,12:00,9.166,R,ugm-3 (Ref.eq),40.07345,R,ugm-3,57.35124,R,ugm-3,118.79634,R,ugm-3
01-01-2019,13:00,7.500,R,ugm-3 (Ref.eq),30.54650,R,ugm-3,43.07203,R,ugm-3,89.90934,R,ugm-3
01-01-2019,14:00,7.500,R,ugm-3 (Ref.eq),28.09886,R,ugm-3,43.86671,R,ugm-3,86.95103,R,ugm-3
01-01-2019,15:00,7.500,R,ugm-3 (Ref.eq),19.58862,R,ugm-3,34.64125,R,ugm-3,64.67672,R,ugm-3
01-01-2019,16:00,5.833,R,ugm-3 (Ref.eq),22.33750,R,ugm-3,42.66563,R,ugm-3,76.91599,R,ugm-3
01-01-2019,17:00,9.166,R,ugm-3 (Ref.eq),85.41120,R,ugm-3,78.09171,R,ugm-3,209.05371,R,ugm-3
01-01-2019,18:00,14.999,R,ugm-3 (Ref.eq),103.78729,R,ugm-3,95.91419,R,ugm-3,255.05249,R,ugm-3
01-01-2019,19:00,13.333,R,ugm-3 (Ref.eq),19.55096,R,ugm-3,42.35579,R,ugm-3,72.33351,R,ugm-3
01-01-2019,20:00,10.000,R,ugm-3 (Ref.eq),43.23655,R,ugm-3,53.60334,R,ugm-3,119.89845,R,ugm-3
01-01-2019,21:00,16.666,R,ugm-3 (Ref.eq),95.08877,R,ugm-3,74.39012,R,ugm-3,220.19087,R,ugm-3
01-01-2019,22:00,12.500,R,ugm-3 (Ref.eq),52.53756,R,ugm-3,58.65799,R,ugm-3,139.21446,R,ugm-3
01-01-2019,23:00,22.499,R,ugm-3 (Ref.eq),75.09347,R,ugm-3,58.52832,R,ugm-3,173.67004,R,ugm-3
01-01-2019,24:00,37.499,R,ugm-3 (Ref.eq),117.75764,R,ugm-3,62.83407,R,ugm-3,243.39328,R,ugm-3
02-01-2019,01:00,29.166,R,ugm-3 (Ref.eq),108.72718,R,ugm-3,51.86449,R,ugm-3,218.57718,R,ugm-3
02-01-2019,02:00,22.499,R,ugm-3 (Ref.eq),97.94943,R,ugm-3,43.06105,R,ugm-3,193.24808,R,ugm-3
02-01-2019,03:00,15.833,R,ugm-3 (Ref.eq),62.41299,R,ugm-3,46.81389,R,ugm-3,142.51247,R,ugm-3
02-01-2019,04:00,10.833,R,ugm-3 (Ref.eq),9.50402,R,ugm-3,12.07227,R,ugm-3,26.64490,R,ugm-3
02-01-2019,05:00,7.500,R,ugm-3 (Ref.eq),7.12990,R,ugm-3,9.38510,R,ugm-3,20.31746,R,ugm-3
02-01-2019,06:00,5.000,R,ugm-3 (Ref.eq),14.93058,R,ugm-3,24.12717,R,ugm-3,47.02041,R,ugm-3
02-01-2019,07:00,5.833,R,ugm-3 (Ref.eq),53.78325,R,ugm-3,62.65822,R,ugm-3,145.12472,R,ugm-3
02-01-2019,08:00,6.666,R,ugm-3 (Ref.eq),79.06952,R,ugm-3,64.40530,R,ugm-3,185.64354,R,ugm-3
02-01-2019,09:00,9.166,R,ugm-3 (Ref.eq),90.75170,R,ugm-3,81.90331,R,ugm-3,221.05397,R,ugm-3
02-01-2019,10:00,9.166,R,ugm-3 (Ref.eq),79.22026,R,ugm-3,80.07984,R,ugm-3,201.54921,R,ugm-3
02-01-2019,11:00,13.333,R,ugm-3 (Ref.eq),102.35851,R,ugm-3,90.05475,R,ugm-3,247.00227,R,ugm-3
02-01-2019,12:00,16.666,R,ugm-3 (Ref.eq),106.80527,R,ugm-3,92.81470,R,ugm-3,256.58050,R,ugm-3
02-01-2019,13:00,11.666,R,ugm-3 (Ref.eq),73.86906,R,ugm-3,59.14385,R,ugm-3,172.40817,R,ugm-3
02-01-2019,14:00,11.666,R,ugm-3 (Ref.eq),126.66498,R,ugm-3,85.40938,R,ugm-3,279.62631,R,ugm-3
02-01-2019,15:00,10.833,R,ugm-3 (Ref.eq),114.41753,R,ugm-3,81.49103,R,ugm-3,256.92880,R,ugm-3
02-01-2019,16:00,10.000,R,ugm-3 (Ref.eq),83.55397,R,ugm-3,67.16552,R,ugm-3,195.27982,R,ugm-3
02-01-2019,17:00,10.000,R,ugm-3 (Ref.eq),79.48405,R,ugm-3,71.43229,R,ugm-3,193.30613,R,ugm-3
02-01-2019,18:00,16.666,R,ugm-3 (Ref.eq),84.19460,R,ugm-3,82.55330,R,ugm-3,211.64989,R,ugm-3
02-01-2019,19:00,18.333,R,ugm-3 (Ref.eq),46.05794,R,ugm-3,63.88040,R,ugm-3,134.50159,R,ugm-3
02-01-2019,20:00,23.332,R,ugm-3 (Ref.eq),54.72536,R,ugm-3,73.69439,R,ugm-3,157.60544,R,ugm-3
02-01-2019,21:00,34.999,R,ugm-3 (Ref.eq),57.21254,R,ugm-3,72.08668,R,ugm-3,159.81134,R,ugm-3
02-01-2019,22:00,16.666,R,ugm-3 (Ref.eq),49.22343,R,ugm-3,63.55461,R,ugm-3,139.02948,R,ugm-3
02-01-2019,23:00,14.999,R,ugm-3 (Ref.eq),33.54670,R,ugm-3,46.84090,R,ugm-3,98.27846,R,ugm-3
02-01-2019,24:00,14.166,R,ugm-3 (Ref.eq),47.45226,R,ugm-3,52.04814,R,ugm-3,124.80726,R,ugm-3
03-01-2019,01:00,12.500,R,ugm-3 (Ref.eq),28.20427,R,ugm-3,45.36639,R,ugm-3,88.61234,R,ugm-3
03-01-2019,02:00,14.166,R,ugm-3 (Ref.eq),31.15846,R,ugm-3,38.26122,R,ugm-3,86.03685,R,ugm-3
03-01-2019,03:00,13.333,R,ugm-3 (Ref.eq),41.00154,R,ugm-3,39.49304,R,ugm-3,102.36119,R,ugm-3
03-01-2019,04:00,14.999,R,ugm-3 (Ref.eq),30.85675,R,ugm-3,35.23820,R,ugm-3,82.55122,R,ugm-3
03-01-2019,05:00,14.999,R,ugm-3 (Ref.eq),29.57451,R,ugm-3,32.38249,R,ugm-3,77.72944,R,ugm-3
03-01-2019,06:00,17.499,R,ugm-3 (Ref.eq),57.78381,R,ugm-3,43.62077,R,ugm-3,132.22138,R,ugm-3
03-01-2019,07:00,30.832,R,ugm-3 (Ref.eq),131.92751,R,ugm-3,72.78789,R,ugm-3,275.07391,R,ugm-3
03-01-2019,08:00,19.999,R,ugm-3 (Ref.eq),262.71608,R,ugm-3,107.70218,R,ugm-3,510.52788,R,ugm-3
03-01-2019,09:00,19.999,R,ugm-3 (Ref.eq),285.19301,R,ugm-3,120.52635,R,ugm-3,557.81620,R,ugm-3
03-01-2019,10:00,20.833,R,ugm-3 (Ref.eq),275.68934,R,ugm-3,117.08937,R,ugm-3,539.80713,R,ugm-3
03-01-2019,11:00,16.666,R,ugm-3 (Ref.eq),238.39121,R,ugm-3,110.25972,R,ugm-3,475.78782,R,ugm-3
03-01-2019,12:00,17.499,R,ugm-3 (Ref.eq),173.63805,R,ugm-3,102.30546,R,ugm-3,368.54676,R,ugm-3
03-01-2019,13:00,19.166,R,ugm-3 (Ref.eq),179.21957,R,ugm-3,105.42410,R,ugm-3,380.22360,R,ugm-3
03-01-2019,14:00,20.833,R,ugm-3 (Ref.eq),192.04198,R,ugm-3,112.25409,R,ugm-3,406.71435,R,ugm-3
03-01-2019,15:00,21.666,R,ugm-3 (Ref.eq),224.43742,R,ugm-3,126.77537,R,ugm-3,470.90794,R,ugm-3
03-01-2019,16:00,16.666,R,ugm-3 (Ref.eq),265.31827,R,ugm-3,122.53458,R,ugm-3,529.35026,R,ugm-3
03-01-2019,17:00,18.333,R,ugm-3 (Ref.eq),226.58706,R,ugm-3,112.44149,R,ugm-3,459.87013,R,ugm-3
03-01-2019,18:00,19.999,R,ugm-3 (Ref.eq),220.93011,R,ugm-3,103.39676,R,ugm-3,442.15154,R,ugm-3
03-01-2019,19:00,22.499,R,ugm-3 (Ref.eq),122.80097,R,ugm-3,83.06372,R,ugm-3,271.35591,R,ugm-3
03-01-2019,20:00,24.166,R,ugm-3 (Ref.eq),121.33016,R,ugm-3,72.65449,R,ugm-3,258.69147,R,ugm-3
03-01-2019,21:00,25.832,R,ugm-3 (Ref.eq),85.20114,R,ugm-3,67.86642,R,ugm-3,198.50635,R,ugm-3
03-01-2019,22:00,27.499,R,ugm-3 (Ref.eq),77.09285,R,ugm-3,60.19852,R,ugm-3,178.40591,R,ugm-3
03-01-2019,23:00,36.665,R,ugm-3 (Ref.eq),90.17925,R,ugm-3,56.22496,R,ugm-3,194.49788,R,ugm-3
03-01-2019,24:00,34.165,R,ugm-3 (Ref.eq),81.65612,R,ugm-3,53.31779,R,ugm-3,178.52210,R,ugm-3
04-01-2019,01:00,14.166,R,ugm-3 (Ref.eq),25.30692,R,ugm-3,33.75234,R,ugm-3,72.55574,R,ugm-3
04-01-2019,02:00,14.166,R,ugm-3 (Ref.eq),11.93386,R,ugm-3,16.17728,R,ugm-3,34.47561,R,ugm-3
04-01-2019,03:00,11.666,R,ugm-3 (Ref.eq),11.40548,R,ugm-3,11.75507,R,ugm-3,29.24322,R,ugm-3
04-01-2019,04:00,11.666,R,ugm-3 (Ref.eq),10.87710,R,ugm-3,16.28605,R,ugm-3,32.96403,R,ugm-3
04-01-2019,05:00,11.666,R,ugm-3 (Ref.eq),17.63282,R,ugm-3,19.70603,R,ugm-3,46.74264,R,ugm-3
04-01-2019,06:00,14.166,R,ugm-3 (Ref.eq),46.50506,R,ugm-3,43.80572,R,ugm-3,115.11248,R,ugm-3
04-01-2019,07:00,14.166,R,ugm-3 (Ref.eq),98.92798,R,ugm-3,75.39807,R,ugm-3,227.08552,R,ugm-3
04-01-2019,08:00,15.833,R,ugm-3 (Ref.eq),138.97169,R,ugm-3,91.32159,R,ugm-3,304.40855,R,ugm-3
04-01-2019,09:00,16.666,R,ugm-3 (Ref.eq),162.06948,R,ugm-3,123.92649,R,ugm-3,372.42956,R,ugm-3
04-01-2019,10:00,15.833,R,ugm-3 (Ref.eq),108.43883,R,ugm-3,102.96474,R,ugm-3,269.23529,R,ugm-3
04-01-2019,11:00,10.000,R,ugm-3 (Ref.eq),79.52886,R,ugm-3,71.77199,R,ugm-3,193.71453,R,ugm-3
04-01-2019,12:00,13.333,R,ugm-3 (Ref.eq),101.49440,R,ugm-3,86.81128,R,ugm-3,242.43385,R,ugm-3
04-01-2019,13:00,14.166,R,ugm-3 (Ref.eq),87.26586,R,ugm-3,79.50112,R,ugm-3,213.30691,R,ugm-3
04-01-2019,14:00,14.999,R,ugm-3 (Ref.eq),92.70063,R,ugm-3,68.60986,R,ugm-3,210.74885,R,ugm-3
04-01-2019,15:00,14.999,R,ugm-3 (Ref.eq),136.66946,R,ugm-3,85.78216,R,ugm-3,295.33908,R,ugm-3
04-01-2019,16:00,17.499,R,ugm-3 (Ref.eq),102.32471,R,ugm-3,95.24713,R,ugm-3,252.14283,R,ugm-3
04-01-2019,17:00,14.999,R,ugm-3 (Ref.eq),106.06112,R,ugm-3,93.64582,R,ugm-3,256.27060,R,ugm-3
04-01-2019,18:00,15.833,R,ugm-3 (Ref.eq),77.07566,R,ugm-3,72.39407,R,ugm-3,190.57510,R,ugm-3
04-01-2019,19:00,21.666,R,ugm-3 (Ref.eq),90.17195,R,ugm-3,77.42882,R,ugm-3,215.69055,R,ugm-3
04-01-2019,20:00,14.999,R,ugm-3 (Ref.eq),54.73270,R,ugm-3,51.36393,R,ugm-3,135.28623,R,ugm-3
04-01-2019,21:00,18.333,R,ugm-3 (Ref.eq),64.35678,R,ugm-3,70.09448,R,ugm-3,168.77350,R,ugm-3
04-01-2019,22:00,17.499,R,ugm-3 (Ref.eq),60.12973,R,ugm-3,63.02979,R,ugm-3,155.22743,R,ugm-3
04-01-2019,23:00,21.666,R,ugm-3 (Ref.eq),50.76985,R,ugm-3,52.03342,R,ugm-3,129.87943,R,ugm-3
04-01-2019,24:00,29.166,R,ugm-3 (Ref.eq),60.39392,R,ugm-3,64.54325,R,ugm-3,157.14597,R,ugm-3
05-01-2019,01:00,23.332,R,ugm-3 (Ref.eq),41.39088,R,ugm-3,52.74267,R,ugm-3,116.20781,R,ugm-3
05-01-2019,02:00,23.332,R,ugm-3 (Ref.eq),77.66267,R,ugm-3,60.17603,R,ugm-3,179.25713,R,ugm-3
05-01-2019,03:00,19.166,R,ugm-3 (Ref.eq),38.79734,R,ugm-3,47.50731,R,ugm-3,106.99574,R,ugm-3
05-01-2019,04:00,8.333,R,ugm-3 (Ref.eq),17.53284,R,ugm-3,25.48003,R,ugm-3,52.36333,R,ugm-3
05-01-2019,05:00,9.166,R,ugm-3 (Ref.eq),5.44643,R,ugm-3,13.23425,R,ugm-3,21.58533,R,ugm-3
05-01-2019,06:00,13.333,R,ugm-3 (Ref.eq),5.89967,R,ugm-3,13.76110,R,ugm-3,22.80714,R,ugm-3
05-01-2019,07:00,9.166,R,ugm-3 (Ref.eq),9.56336,R,ugm-3,23.27070,R,ugm-3,37.93432,R,ugm-3
05-01-2019,08:00,9.166,R,ugm-3 (Ref.eq),33.92501,R,ugm-3,41.59637,R,ugm-3,93.61400,R,ugm-3
05-01-2019,09:00,12.500,R,ugm-3 (Ref.eq),52.05461,R,ugm-3,55.57234,R,ugm-3,135.38830,R,ugm-3
05-01-2019,10:00,8.333,R,ugm-3 (Ref.eq),64.32986,R,ugm-3,62.69949,R,ugm-3,161.33724,R,ugm-3
05-01-2019,11:00,14.166,R,ugm-3 (Ref.eq),70.22198,R,ugm-3,60.35590,R,ugm-3,168.02811,R,ugm-3
05-01-2019,12:00,9.166,R,ugm-3 (Ref.eq),61.95035,R,ugm-3,72.57344,R,ugm-3,167.56266,R,ugm-3
05-01-2019,13:00,12.500,R,ugm-3 (Ref.eq),88.20050,R,ugm-3,72.58535,R,ugm-3,207.82424,R,ugm-3
05-01-2019,14:00,14.999,R,ugm-3 (Ref.eq),84.53681,R,ugm-3,69.70844,R,ugm-3,199.32974,R,ugm-3
05-01-2019,15:00,14.999,R,ugm-3 (Ref.eq),116.41469,R,ugm-3,79.59299,R,ugm-3,258.09304,R,ugm-3
05-01-2019,16:00,14.166,R,ugm-3 (Ref.eq),115.50821,R,ugm-3,86.56833,R,ugm-3,263.67846,R,ugm-3
05-01-2019,17:00,23.332,R,ugm-3 (Ref.eq),170.04809,R,ugm-3,111.97377,R,ugm-3,372.71055,R,ugm-3
05-01-2019,18:00,28.332,R,ugm-3 (Ref.eq),88.12496,R,ugm-3,78.11206,R,ugm-3,213.23512,R,ugm-3
05-01-2019,19:00,29.999,R,ugm-3 (Ref.eq),58.17335,R,ugm-3,56.77943,R,ugm-3,145.97733,R,ugm-3
05-01-2019,20:00,28.332,R,ugm-3 (Ref.eq),58.77767,R,ugm-3,61.32188,R,ugm-3,151.44639,R,ugm-3
05-01-2019,21:00,19.999,R,ugm-3 (Ref.eq),33.50954,R,ugm-3,47.12066,R,ugm-3,98.50124,R,ugm-3
05-01-2019,22:00,24.999,R,ugm-3 (Ref.eq),23.08502,R,ugm-3,32.73397,R,ugm-3,68.13051,R,ugm-3
05-01-2019,23:00,16.666,R,ugm-3 (Ref.eq),19.76127,R,ugm-3,32.12854,R,ugm-3,62.42873,R,ugm-3
05-01-2019,24:00,23.332,R,ugm-3 (Ref.eq),17.07959,R,ugm-3,29.20042,R,ugm-3,55.38877,R,ugm-3
06-01-2019,01:00,26.666,R,ugm-3 (Ref.eq),12.64486,R,ugm-3,26.80358,R,ugm-3,46.19210,R,ugm-3
06-01-2019,02:00,19.166,R,ugm-3 (Ref.eq),6.47111,R,ugm-3,15.81338,R,ugm-3,25.73560,R,ugm-3
06-01-2019,03:00,39.998,R,ugm-3 (Ref.eq),9.49499,R,ugm-3,14.67034,R,ugm-3,29.22912,R,ugm-3
06-01-2019,04:00,32.499,R,ugm-3 (Ref.eq),6.24431,R,ugm-3,10.74616,R,ugm-3,20.32064,R,ugm-3
06-01-2019,05:00,12.500,R,ugm-3 (Ref.eq),2.76685,R,ugm-3,9.44051,R,ugm-3,13.68295,R,ugm-3
06-01-2019,06:00,17.499,R,ugm-3 (Ref.eq),4.58118,R,ugm-3,8.75469,R,ugm-3,15.77907,R,ugm-3
06-01-2019,07:00,14.999,R,ugm-3 (Ref.eq),13.72842,R,ugm-3,12.95365,R,ugm-3,34.00360,R,ugm-3
06-01-2019,08:00,16.666,R,ugm-3 (Ref.eq),17.43268,R,ugm-3,27.01226,R,ugm-3,53.74199,R,ugm-3
06-01-2019,09:00,24.166,R,ugm-3 (Ref.eq),49.48582,R,ugm-3,39.81656,R,ugm-3,115.69375,R,ugm-3
06-01-2019,10:00,14.999,R,ugm-3 (Ref.eq),34.78219,R,ugm-3,32.14285,R,ugm-3,85.47480,R,ugm-3
06-01-2019,11:00,22.499,R,ugm-3 (Ref.eq),35.08458,R,ugm-3,36.33722,R,ugm-3,90.13283,R,ugm-3
06-01-2019,12:00,19.999,R,ugm-3 (Ref.eq),31.87171,R,ugm-3,34.50942,R,ugm-3,83.37869,R,ugm-3
06-01-2019,13:00,17.499,R,ugm-3 (Ref.eq),50.95996,R,ugm-3,48.44438,R,ugm-3,126.58189,R,ugm-3
06-01-2019,14:00,14.166,R,ugm-3 (Ref.eq),53.49246,R,ugm-3,50.03445,R,ugm-3,132.05508,R,ugm-3
06-01-2019,15:00,13.333,R,ugm-3 (Ref.eq),74.77302,R,ugm-3,60.49146,R,ugm-3,175.14183,R,ugm-3
06-01-2019,16:00,16.666,R,ugm-3 (Ref.eq),111.39979,R,ugm-3,82.64429,R,ugm-3,253.45491,R,ugm-3
06-01-2019,17:00,17.499,R,ugm-3 (Ref.eq),61.46795,R,ugm-3,57.83505,R,ugm-3,152.08459,R,ugm-3
06-01-2019,18:00,18.333,R,ugm-3 (Ref.eq),39.73380,R,ugm-3,41.55229,R,ugm-3,102.47660,R,ugm-3
06-01-2019,19:00,24.166,R,ugm-3 (Ref.eq),36.21854,R,ugm-3,40.53750,R,ugm-3,96.07181,R,ugm-3
06-01-2019,20:00,22.499,R,ugm-3 (Ref.eq),34.97119,R,ugm-3,42.33362,R,ugm-3,95.95536,R,ugm-3
06-01-2019,21:00,16.666,R,ugm-3 (Ref.eq),24.23641,R,ugm-3,34.22229,R,ugm-3,71.38427,R,ugm-3
06-01-2019,22:00,13.333,R,ugm-3 (Ref.eq),9.23040,R,ugm-3,22.23776,R,ugm-3,36.39084,R,ugm-3
06-01-2019,23:00,15.833,R,ugm-3 (Ref.eq),7.18928,R,ugm-3,15.93493,R,ugm-3,26.95833,R,ugm-3
06-01-2019,24:00,10.833,R,ugm-3 (Ref.eq),13.53943,R,ugm-3,18.25081,R,ugm-3,39.01098,R,ugm-3
07-01-2019,01:00,10.833,R,ugm-3 (Ref.eq),5.94641,R,ugm-3,12.79152,R,ugm-3,21.90922,R,ugm-3
07-01-2019,02:00,13.333,R,ugm-3 (Ref.eq),1.97457,R,ugm-3,6.35371,R,ugm-3,9.38134,R,ugm-3
07-01-2019,03:00,10.833,R,ugm-3 (Ref.eq),1.67196,R,ugm-3,2.62233,R,ugm-3,5.18596,R,ugm-3
07-01-2019,04:00,7.500,R,ugm-3 (Ref.eq),1.48282,R,ugm-3,2.09657,R,ugm-3,4.37019,R,ugm-3
07-01-2019,05:00,5.000,R,ugm-3 (Ref.eq),1.29369,R,ugm-3,3.84330,R,ugm-3,5.82692,R,ugm-3
07-01-2019,06:00,5.000,R,ugm-3 (Ref.eq),7.00557,R,ugm-3,6.68077,R,ugm-3,17.42249,R,ugm-3
07-01-2019,07:00,4.167,R,ugm-3 (Ref.eq),13.02007,R,ugm-3,20.47501,R,ugm-3,40.43883,R,ugm-3
07-01-2019,08:00,6.666,R,ugm-3 (Ref.eq),29.32352,R,ugm-3,28.92326,R,ugm-3,73.88535,R,ugm-3
07-01-2019,09:00,10.000,R,ugm-3 (Ref.eq),47.55614,R,ugm-3,38.66712,R,ugm-3,111.58553,R,ugm-3
07-01-2019,10:00,10.833,R,ugm-3 (Ref.eq),31.21487,R,ugm-3,40.18264,R,ugm-3,88.04477,R,ugm-3
07-01-2019,11:00,21.666,R,ugm-3 (Ref.eq),32.57664,R,ugm-3,45.43654,R,ugm-3,95.38669,R,ugm-3
07-01-2019,12:00,10.000,R,ugm-3 (Ref.eq),43.84910,R,ugm-3,46.50715,R,ugm-3,113.74149,R,ugm-3
07-01-2019,13:00,10.000,R,ugm-3 (Ref.eq),76.07773,R,ugm-3,64.79942,R,ugm-3,181.45030,R,ugm-3
07-01-2019,14:00,10.000,R,ugm-3 (Ref.eq),73.92159,R,ugm-3,62.16199,R,ugm-3,175.50684,R,ugm-3
07-01-2019,15:00,9.166,R,ugm-3 (Ref.eq),108.00374,R,ugm-3,95.61742,R,ugm-3,261.22084,R,ugm-3
07-01-2019,16:00,9.166,R,ugm-3 (Ref.eq),106.71762,R,ugm-3,84.42060,R,ugm-3,248.05200,R,ugm-3
07-01-2019,17:00,9.166,R,ugm-3 (Ref.eq),73.77028,R,ugm-3,80.80707,R,ugm-3,193.91991,R,ugm-3
07-01-2019,18:00,,,,48.84226,R,ugm-3,52.66086,R,ugm-3,127.55129,R,ugm-3
07-01-2019,19:00,,,,29.39917,R,ugm-3,46.92898,R,ugm-3,92.00707,R,ugm-3
07-01-2019,20:00,,,,22.17421,R,ugm-3,41.92480,R,ugm-3,75.92477,R,ugm-3
07-01-2019,21:00,,,,25.38950,R,ugm-3,36.64513,R,ugm-3,75.57516,R,ugm-3
07-01-2019,22:00,,,,16.27319,R,ugm-3,29.06368,R,ugm-3,54.01555,R,ugm-3
07-01-2019,23:00,,,,10.59913,R,ugm-3,16.96167,R,ugm-3,33.21345,R,ugm-3
07-01-2019,24:00,,,,11.58264,R,ugm-3,15.10404,R,ugm-3,32.86383,R,ugm-3
08-01-2019,01:00,,,,5.39568,R,ugm-3,12.95270,R,ugm-3,21.22596,R,ugm-3
08-01-2019,02:00,,,,3.22529,R,ugm-3,10.21602,R,ugm-3,15.16140,R,ugm-3
08-01-2019,03:00,,,,2.58175,R,ugm-3,5.83797,R,ugm-3,9.79660,R,ugm-3
08-01-2019,04:00,,,,3.64170,R,ugm-3,11.03536,R,ugm-3,16.61923,R,ugm-3
08-01-2019,05:00,,,,6.97299,R,ugm-3,14.38285,R,ugm-3,25.07462,R,ugm-3
08-01-2019,06:00,,,,23.51587,R,ugm-3,32.81058,R,ugm-3,68.86773,R,ugm-3
08-01-2019,07:00,,,,54.55742,R,ugm-3,67.31900,R,ugm-3,150.97253,R,ugm-3
08-01-2019,08:00,,,,110.96218,R,ugm-3,95.18482,R,ugm-3,265.32446,R,ugm-3
08-01-2019,09:00,,,,124.51447,R,ugm-3,100.29594,R,ugm-3,291.21546,R,ugm-3
08-01-2019,10:00,,,,85.25827,R,ugm-3,79.37447,R,ugm-3,210.10198,R,ugm-3
08-01-2019,11:00,,,,110.12936,R,ugm-3,70.92067,R,ugm-3,239.78334,R,ugm-3
08-01-2019,12:00,,,,74.09088,R,ugm-3,70.78149,R,ugm-3,184.38592,R,ugm-3
08-01-2019,13:00,,,,73.56090,R,ugm-3,70.95267,R,ugm-3,183.74448,R,ugm-3
08-01-2019,14:00,,,,51.68039,R,ugm-3,47.93864,R,ugm-3,127.18080,R,ugm-3
08-01-2019,15:00,,,,30.25415,R,ugm-3,59.21591,R,ugm-3,105.60497,R,ugm-3
08-01-2019,16:00,,,,95.40355,R,ugm-3,91.98379,R,ugm-3,238.26720,R,ugm-3
08-01-2019,17:00,,,,96.65278,R,ugm-3,87.85243,R,ugm-3,236.05130,R,ugm-3
08-01-2019,18:00,,,,101.30902,R,ugm-3,92.37559,R,ugm-3,247.71391,R,ugm-3
08-01-2019,19:00,,,,119.51754,R,ugm-3,97.98626,R,ugm-3,281.24393,R,ugm-3
08-01-2019,20:00,,,,60.61430,R,ugm-3,67.71187,R,ugm-3,160.65250,R,ugm-3
08-01-2019,21:00,,,,56.63947,R,ugm-3,65.87595,R,ugm-3,152.72192,R,ugm-3
08-01-2019,22:00,,,,41.98937,R,ugm-3,58.54114,R,ugm-3,122.92395,R,ugm-3
08-01-2019,23:00,,,,14.43054,R,ugm-3,32.62946,R,ugm-3,54.75597,R,ugm-3
08-01-2019,24:00,,,,12.84060,R,ugm-3,33.72612,R,ugm-3,53.41477,R,ugm-3
09-01-2019,01:00,,,,6.46050,R,ugm-3,18.33880,R,ugm-3,28.24475,R,ugm-3
09-01-2019,02:00,,,,11.48645,R,ugm-3,20.84491,R,ugm-3,38.45722,R,ugm-3
09-01-2019,03:00,,,,5.04616,R,ugm-3,12.22074,R,ugm-3,19.95807,R,ugm-3
09-01-2019,04:00,,,,14.40352,R,ugm-3,27.05145,R,ugm-3,49.13654,R,ugm-3
09-01-2019,05:00,,,,28.64793,R,ugm-3,40.63298,R,ugm-3,84.55919,R,ugm-3
09-01-2019,06:00,,,,44.82442,R,ugm-3,38.00500,R,ugm-3,106.73483,R,ugm-3
09-01-2019,07:00,,,,113.96284,R,ugm-3,68.89961,R,ugm-3,243.64019,R,ugm-3
09-01-2019,08:00,,,,265.49909,R,ugm-3,102.18801,R,ugm-3,509.28094,R,ugm-3
09-01-2019,09:00,,,,399.04042,R,ugm-3,132.43086,R,ugm-3,744.28430,R,ugm-3
09-01-2019,10:00,,,,379.60589,R,ugm-3,136.43629,R,ugm-3,718.49054,R,ugm-3
09-01-2019,11:00,,,,327.02281,R,ugm-3,117.73905,R,ugm-3,619.16704,R,ugm-3
09-01-2019,12:00,,,,309.86133,R,ugm-3,128.93851,R,ugm-3,604.05260,R,ugm-3
09-01-2019,13:00,,,,238.33622,R,ugm-3,98.84397,R,ugm-3,464.28775,R,ugm-3
09-01-2019,14:00,46.665,R,ugm-3 (Ref.eq),258.22535,R,ugm-3,130.43950,R,ugm-3,526.37952,R,ugm-3
09-01-2019,15:00,39.165,R,ugm-3 (Ref.eq),190.29923,R,ugm-3,135.26794,R,ugm-3,427.05602,R,ugm-3
09-01-2019,16:00,19.166,R,ugm-3 (Ref.eq),225.00103,R,ugm-3,120.34140,R,ugm-3,465.33817,R,ugm-3
09-01-2019,17:00,18.333,R,ugm-3 (Ref.eq),205.45285,R,ugm-3,120.84460,R,ugm-3,435.86792,R,ugm-3
09-01-2019,18:00,24.166,R,ugm-3 (Ref.eq),156.01415,R,ugm-3,120.55212,R,ugm-3,359.77048,R,ugm-3
09-01-2019,19:00,29.166,R,ugm-3 (Ref.eq),124.11577,R,ugm-3,87.93766,R,ugm-3,278.24585,R,ugm-3
09-01-2019,20:00,24.999,R,ugm-3 (Ref.eq),81.72350,R,ugm-3,71.88045,R,ugm-3,197.18807,R,ugm-3
09-01-2019,21:00,23.332,R,ugm-3 (Ref.eq),30.92097,R,ugm-3,43.91710,R,ugm-3,91.32860,R,ugm-3
09-01-2019,22:00,18.333,R,ugm-3 (Ref.eq),24.32915,R,ugm-3,43.92868,R,ugm-3,81.23285,R,ugm-3
09-01-2019,23:00,17.499,R,ugm-3 (Ref.eq),25.42778,R,ugm-3,35.35801,R,ugm-3,74.34673,R,ugm-3
09-01-2019,24:00,20.833,R,ugm-3 (Ref.eq),9.13764,R,ugm-3,23.86280,R,ugm-3,37.87365,R,ugm-3
10-01-2019,01:00,17.499,R,ugm-3 (Ref.eq),4.89831,R,ugm-3,13.98086,R,ugm-3,21.49149,R,ugm-3
10-01-2019,02:00,26.666,R,ugm-3 (Ref.eq),16.72703,R,ugm-3,18.21124,R,ugm-3,43.85900,R,ugm-3
10-01-2019,03:00,17.499,R,ugm-3 (Ref.eq),9.71320,R,ugm-3,16.52626,R,ugm-3,31.41963,R,ugm-3
10-01-2019,04:00,33.332,R,ugm-3 (Ref.eq),5.46699,R,ugm-3,13.63449,R,ugm-3,22.01710,R,ugm-3
10-01-2019,05:00,18.333,R,ugm-3 (Ref.eq),13.46655,R,ugm-3,16.08568,R,ugm-3,36.73410,R,ugm-3
10-01-2019,06:00,14.999,R,ugm-3 (Ref.eq),38.10973,R,ugm-3,37.46001,R,ugm-3,95.89411,R,ugm-3
10-01-2019,07:00,10.000,R,ugm-3 (Ref.eq),69.12222,R,ugm-3,63.20119,R,ugm-3,169.18710,R,ugm-3
10-01-2019,08:00,15.833,R,ugm-3 (Ref.eq),176.68020,R,ugm-3,102.80082,R,ugm-3,373.70669,R,ugm-3
10-01-2019,09:00,29.999,R,ugm-3 (Ref.eq),250.60973,R,ugm-3,119.38556,R,ugm-3,503.64845,R,ugm-3
10-01-2019,10:00,21.666,R,ugm-3 (Ref.eq),172.32026,R,ugm-3,91.38173,R,ugm-3,355.60244,R,ugm-3
10-01-2019,11:00,13.333,R,ugm-3 (Ref.eq),119.77342,R,ugm-3,120.38452,R,ugm-3,304.03454,R,ugm-3
10-01-2019,12:00,14.166,R,ugm-3 (Ref.eq),115.37556,R,ugm-3,100.32185,R,ugm-3,277.22857,R,ugm-3
10-01-2019,13:00,19.166,R,ugm-3 (Ref.eq),143.99956,R,ugm-3,123.18444,R,ugm-3,343.98068,R,ugm-3
10-01-2019,14:00,20.833,R,ugm-3 (Ref.eq),192.83096,R,ugm-3,121.31166,R,ugm-3,416.98168,R,ugm-3
10-01-2019,15:00,16.666,R,ugm-3 (Ref.eq),136.03792,R,ugm-3,110.39658,R,ugm-3,318.98514,R,ugm-3
10-01-2019,16:00,18.333,R,ugm-3 (Ref.eq),113.85906,R,ugm-3,100.25268,R,ugm-3,274.83414,R,ugm-3
10-01-2019,17:00,17.499,R,ugm-3 (Ref.eq),145.55398,R,ugm-3,112.56652,R,ugm-3,335.74617,R,ugm-3
10-01-2019,18:00,14.166,R,ugm-3 (Ref.eq),85.57627,R,ugm-3,85.15982,R,ugm-3,216.37495,R,ugm-3
10-01-2019,19:00,14.166,R,ugm-3 (Ref.eq),82.69492,R,ugm-3,76.32086,R,ugm-3,203.11797,R,ugm-3
10-01-2019,20:00,13.333,R,ugm-3 (Ref.eq),45.54059,R,ugm-3,54.97457,R,ugm-3,124.80250,R,ugm-3
10-01-2019,21:00,14.166,R,ugm-3 (Ref.eq),45.73015,R,ugm-3,53.80790,R,ugm-3,123.92649,R,ugm-3
10-01-2019,22:00,14.166,R,ugm-3 (Ref.eq),30.52721,R,ugm-3,46.10793,R,ugm-3,92.91567,R,ugm-3
10-01-2019,23:00,10.833,R,ugm-3 (Ref.eq),16.72703,R,ugm-3,30.35861,R,ugm-3,56.00636,R,ugm-3
10-01-2019,24:00,7.500,R,ugm-3 (Ref.eq),10.47145,R,ugm-3,20.97010,R,ugm-3,37.02610,R,ugm-3
11-01-2019,01:00,8.333,R,ugm-3 (Ref.eq),4.64905,R,ugm-3,11.10629,R,ugm-3,18.23473,R,ugm-3
11-01-2019,02:00,9.166,R,ugm-3 (Ref.eq),8.54433,R,ugm-3,17.93298,R,ugm-3,31.03411,R,ugm-3
11-01-2019,03:00,7.500,R,ugm-3 (Ref.eq),5.58493,R,ugm-3,14.11309,R,ugm-3,22.67653,R,ugm-3
11-01-2019,04:00,6.666,R,ugm-3 (Ref.eq),3.64993,R,ugm-3,14.91759,R,ugm-3,20.51408,R,ugm-3
11-01-2019,05:00,9.166,R,ugm-3 (Ref.eq),6.49552,R,ugm-3,20.89913,R,ugm-3,30.85878,R,ugm-3
11-01-2019,06:00,10.000,R,ugm-3 (Ref.eq),25.80753,R,ugm-3,47.86221,R,ugm-3,87.43321,R,ugm-3
11-01-2019,07:00,8.333,R,ugm-3 (Ref.eq),69.25009,R,ugm-3,75.28868,R,ugm-3,181.47067,R,ugm-3
11-01-2019,08:00,15.833,R,ugm-3 (Ref.eq),186.48807,R,ugm-3,115.10285,R,ugm-3,401.04724,R,ugm-3
11-01-2019,09:00,22.499,R,ugm-3 (Ref.eq),328.95689,R,ugm-3,155.85578,R,ugm-3,660.24930,R,ugm-3
11-01-2019,10:00,21.666,R,ugm-3 (Ref.eq),193.73482,R,ugm-3,103.05621,R,ugm-3,400.11213,R,ugm-3
11-01-2019,11:00,20.833,R,ugm-3 (Ref.eq),153.28961,R,ugm-3,91.19729,R,ugm-3,326.23808,R,ugm-3
11-01-2019,12:00,22.499,R,ugm-3 (Ref.eq),137.61994,R,ugm-3,104.23619,R,ugm-3,315.25049,R,ugm-3
11-01-2019,13:00,16.666,R,ugm-3 (Ref.eq),124.90967,R,ugm-3,90.76220,R,ugm-3,282.28770,R,ugm-3
11-01-2019,14:00,19.166,R,ugm-3 (Ref.eq),159.20842,R,ugm-3,114.03269,R,ugm-3,358.14886,R,ugm-3
11-01-2019,15:00,11.666,R,ugm-3 (Ref.eq),132.00466,R,ugm-3,93.09187,R,ugm-3,295.49619,R,ugm-3
11-01-2019,16:00,16.666,R,ugm-3 (Ref.eq),111.28882,R,ugm-3,88.54210,R,ugm-3,259.18258,R,ugm-3
11-01-2019,17:00,10.833,R,ugm-3 (Ref.eq),115.23469,R,ugm-3,73.74463,R,ugm-3,250.43536,R,ugm-3
11-01-2019,18:00,14.166,R,ugm-3 (Ref.eq),75.28272,R,ugm-3,62.64898,R,ugm-3,178.08087,R,ugm-3
11-01-2019,19:00,12.500,R,ugm-3 (Ref.eq),34.38222,R,ugm-3,45.58525,R,ugm-3,98.30392,R,ugm-3
11-01-2019,20:00,8.333,R,ugm-3 (Ref.eq),38.85927,R,ugm-3,45.03256,R,ugm-3,104.61594,R,ugm-3
11-01-2019,21:00,8.333,R,ugm-3 (Ref.eq),20.07843,R,ugm-3,29.00239,R,ugm-3,59.78889,R,ugm-3
11-01-2019,22:00,6.666,R,ugm-3 (Ref.eq),10.44139,R,ugm-3,16.30999,R,ugm-3,32.31990,R,ugm-3
11-01-2019,23:00,6.666,R,ugm-3 (Ref.eq),7.36816,R,ugm-3,11.61262,R,ugm-3,22.91031,R,ugm-3
11-01-2019,24:00,5.833,R,ugm-3 (Ref.eq),5.81258,R,ugm-3,10.54958,R,ugm-3,19.46207,R,ugm-3